SENTINEL-3B (43437 NORAD) Tracking and Keplerian Element Data

This shows tracking and keplerian element data for the satellite.

Feedback or suggestion? Click here.




ElementValue
Catalog43437
NameSENTINEL-3B
Epoch Orbit35305
Epoch Day34.77642478
Epoch Year2025
RAAN104.359
Inclination98.6327
Eccentricity5.48E-05
Argument of Perigee79.6878
Mean Anonmoly280.4364
Mean Motion14.2673394
Decay Rate2.95E-06
L11 43437U 18039A 25034.77642478 .00000295 00000+0 13993-3 0 9994
L22 43437 98.6327 104.3590 0000548 79.6878 280.4364 14.26733940353054



Live tracking and technical data element details for SENTINEL-3B (NORAD 43437). SENTINEL-3B can be tracked NOW for your location showing map with azimuth and elevation plus other details from your city location.







IsCatalogInMostPopularTable: catalog: 43437, numindb: 954
Update: records affected: 1



GetName: 43437 SENTINEL-3B

Hit Count: updated at: Thu, 19 Jun 2025 09:56:03 GMT